This demonstration page uses our WeatherBlox Daily Observations layout. Learn more.

Left ArrowRight Arrow

41.86663, -103.66717

Hourly Observations for July 31, 2020

Temp ( °F °C ) Dew Point ( °F °C ) Humidity (%) Winds ( mph kmh ) Pressure ( in mb ) Visibility ( mi km ) Precip ( " mm )
12:53 am 00:53 Clear 60 15.6 58 14.4 93 93 NNE 5 7 30.11 1020 10 16.0934 0 0
1:53 am 01:53 Clear 60 15.6 57 13.9 90 90 N 5 7 30.1 1019 10 16.0934 0 0
2:53 am 02:53 Clear 58 14.4 56 13.3 93 93 N 6 9 30.1 1019 10 16.0934 0 0
3:53 am 03:53 Clear 56 13.3 55 12.8 97 97 Calm 30.09 1019 10 16.0934 0 0
4:53 am 04:53 Clear 56 13.3 55 12.8 97 97 NNW 3 6 30.09 1019 10 16.0934 0 0
5:53 am 05:53 Sunny 56 13.3 55 12.8 97 97 Calm 30.09 1019 10 16.0934 0 0
6:53 am 06:53 Sunny 59 15 57 13.9 93 93 undefined N/A 30.09 1019 10 16.0934 0 0
7:53 am 07:53 Sunny 64 17.8 59 15 84 84 NW 7 11 30.11 1020 10 16.0934 0 0
8:53 am 08:53 Sunny 69 20.6 58 14.4 68 68 W 5 7 30.11 1020 10 16.0934 0 0
9:53 am 09:53 Sunny 75 23.9 57 13.9 54 54 VRB 3 6 30.09 1019 10 16.0934 0 0
10:53 am 10:53 Sunny 78 25.6 57 13.9 48 48 VRB 3 6 30.09 1019 10 16.0934 0 0
11:53 am 11:53 Sunny 83 28.3 54 12.2 37 37 WSW 7 11 30.07 1018 10 16.0934 0 0
12:53 pm 12:53 Sunny 86 30 51 10.6 30 30 W 8 13 30.06 1018 10 16.0934 0 0
1:53 pm 13:53 Sunny 88 31.1 53 11.7 30 30 W 8 13 30.04 1017 10 16.0934 0 0
2:53 pm 14:53 Sunny 90 32.2 53 11.7 28 28 WNW 9 15 30.02 1017 10 16.0934 0 0
3:53 pm 15:53 Partly Cloudy 90 32.2 49 9.4 24 24 NNE 10 17 30.02 1017 10 16.0934 0 0
4:53 pm 16:53 Sunny 91 32.8 49 9.4 24 24 NNE 10 17 30.02 1017 10 16.0934 0 0
5:53 pm 17:53 Sunny 89 31.7 48 8.9 24 24 ENE 5 7 30.01 1016 10 16.0934 0 0
6:53 pm 18:53 Sunny 85 29.4 54 12.2 35 35 ENE 8 13 30.01 1016 10 16.0934 0 0
7:53 pm 19:53 Sunny 79 26.1 58 14.4 49 49 E 3 6 30.02 1017 10 16.0934 0 0
8:53 pm 20:53 Clear 71 21.7 56 13.3 59 59 E 5 7 30.04 1017 10 16.0934 0 0
9:53 pm 21:53 Clear 67 19.4 57 13.9 71 71 E 7 11 30.06 1018 10 16.0934 0 0
10:53 pm 22:53 Clear 66 18.9 57 13.9 73 73 E 5 7 30.06 1018 10 16.0934 0 0
11:53 pm 23:53 Clear 65 18.3 56 13.3 73 73 Calm 30.05 1018 10 16.0934 0 0

Powered by AerisWeather